EDXW Weather Reports


Display with metric or nautical units.
time (UTC)temp
F
wind
direction
speed
MPH
gust
MPH
rain 1hr
in
rain 24hr
in
rain mn
in
humidity
%
barometer
mb
20260502121002 64 190 12.0 0.0 0.00 0.00 0.00 55 1016.0
20260502111001 62 190 12.0 0.0 0.00 0.00 0.00 65 1016.0
20260502101333 60 200 13.0 0.0 0.00 0.00 0.00 60 1017.0
20260502091002 62 200 12.0 0.0 0.00 0.00 0.00 55 1017.0
20260502071002 60 200 14.0 0.0 0.00 0.00 0.00 60 1017.0
20260502061001 59 200 13.0 0.0 0.00 0.00 0.00 70 1017.0
20260502051001 55 200 9.0 0.0 0.00 0.00 0.00 80 1017.0
20260502041001 53 190 8.0 0.0 0.00 0.00 0.00 80 1018.0
20260502031002 55 180 10.0 0.0 0.00 0.00 0.00 80 1018.0
20260502021002 55 180 9.0 0.0 0.00 0.00 0.00 80 1019.0
20260502011002 53 170 7.0 0.0 0.00 0.00 0.00 80 1020.0
20260501231001 53 150 8.0 0.0 0.00 0.00 0.00 85 1021.0
20260501221001 55 150 9.0 0.0 0.00 0.00 0.00 75 1021.0
20260501211001 55 190 6.0 0.0 0.00 0.00 0.00 80 1022.0
20260501201001 59 130 7.0 0.0 0.00 0.00 0.00 65 1022.0
20260501191001 60 130 6.0 0.0 0.00 0.00 0.00 60 1022.0
20260501181001 64 110 6.0 0.0 0.00 0.00 0.00 55 1023.0
20260501171001 66 160 5.0 0.0 0.00 0.00 0.00 40 1024.0
20260501161002 66 170 6.0 0.0 0.00 0.00 0.00 35 1025.0
20260501151001 66 180 7.0 0.0 0.00 0.00 0.00 30 1026.0